Location: Skalnate Pleso
(49.1889°N, 20.2450°E)
Time: 04:05:01
(UTC+02:00)

Cosmos 1605 Rocket - Pass Details

Date: 23 February 2020
Orbit: 944 x 1007 km, 82.9° (Epoch: 08 April)

Event Time Altitude Azimuth Distance (km) Brightness Sun altitude
Rises 17:39:41 0° 220° (SW) 3,724 7.9 -5.4°
Reaches altitude 10° 17:42:32 10° 230° (SW) 2,775 7.4 -5.8°
Maximum altitude 17:48:09 32° 292° (WNW) 1,658 6.0 -6.7°
Drops below altitude 10° 17:53:44 10° 354° (N) 2,763 6.4 -7.6°
Sets 17:56:35 0° 4° (N) 3,706 6.9 -8.1°
